Weather History for Eastover, SC

Change the Weather History Date:

Wednesday, January 23, 2013

  Actual Average Record
Temperature  
Mean Temperature 38 °F -  
Max Temperature 52 °F 53 °F 84 °F (1999)
Min Temperature 24 °F 33 °F 17 °F (2011)
Degree Days  
Heating Degree Days 27    
Moisture  
Dew Point 19 °F    
Average Humidity 50    
Maximum Humidity 77    
Minimum Humidity 22    
Precipitation  
Precipitation 0.00 in - - ()
Sea Level Pressure  
Sea Level Pressure 30.28 in    
Wind  
Wind Speed 4 mph (SSW)    
Max Wind Speed 9 mph    
Max Gust Speed -    
Visibility 10 miles    
Events      
Averages and records for this station are not official NWS values.
T = Trace of Precipitation, MM = Missing Value Source: NWS Daily Summary

Daily Weather History Graph

Daily Weather History Graph

Search for Another Location

Airport:

Trip Planner

Search our weather history database for the weather conditions in past years. The results will help you decide how hot, cold, wet, or windy it might be!

Date:

Astronomy

Jan. 23, 2013 Rise Set
Actual Time 7:25 AM EST 5:45 PM EST
Civil Twilight 6:58 AM EST 6:12 PM EST
Nautical Twilight 6:28 AM EST 6:42 PM EST
Astronomical Twilight 5:58 AM EST 7:12 PM EST
Moon 2:56 PM EST (1/23) 4:33 AM EST (1/23)
Length of Visible Light 11h 13m
Length of Day
10h 20m
Waxing Gibbous, 89% of the Moon is Illuminated
Jan 23
Waxing Gibbous
Jan 26
Full
Feb 3
Last Quarter
Feb 10
New
Feb 17
First Quarter

Hourly Weather History & Observations

Time (EST) Temp. Windchill Dew Point Humidity Pressure Visibility Wind Dir Wind Speed Gust Speed Precip Events Conditions
12:55 AM 31.1 °F 26.4 °F 19.9 °F 63% 30.28 in 10.0 mi NW 4.6 mph - N/A   Clear
1:55 AM 32.5 °F 27.1 °F 19.2 °F 58% 30.29 in 10.0 mi West 5.8 mph - N/A   Clear
2:55 AM 28.8 °F 20.9 °F 19.2 °F 68% 30.30 in 10.0 mi NNW 8.1 mph - N/A   Clear
3:55 AM 27.7 °F - 19.0 °F 70% 30.31 in 10.0 mi Calm Calm - N/A   Clear
4:55 AM 27.0 °F - 20.3 °F 76% 30.32 in 10.0 mi Calm Calm - N/A   Clear
5:55 AM 24.8 °F - 18.3 °F 76% 30.33 in 10.0 mi Calm Calm - N/A   Clear
6:55 AM 25.3 °F - 18.9 °F 76% 30.35 in 10.0 mi Calm Calm - N/A   Clear
7:55 AM 24.3 °F - 18.0 °F 77% 30.37 in 10.0 mi Calm Calm - N/A   Partly Cloudy
8:55 AM 31.1 °F 25.4 °F 15.1 °F 52% 30.38 in 10.0 mi ESE 5.8 mph - N/A   Partly Cloudy
9:55 AM 35.4 °F 29.7 °F 10.0 °F 35% 30.40 in 10.0 mi SE 6.9 mph - N/A   Clear
10:55 AM 39.2 °F 35.9 °F 7.9 °F 27% 30.39 in 10.0 mi East 4.6 mph - N/A   Clear
11:55 AM 42.6 °F - 6.1 °F 22% 30.37 in 10.0 mi Calm Calm - N/A   Partly Cloudy
12:55 PM 46.4 °F - 11.1 °F 24% 30.31 in 10.0 mi Calm Calm - 0.00 in   Light Drizzle
1:55 PM 48.2 °F - 15.3 °F 27% 30.27 in 10.0 mi SW 9.2 mph - N/A   Partly Cloudy
2:55 PM 50.7 °F - 17.2 °F 27% 30.25 in 10.0 mi WSW 6.9 mph - N/A   Partly Cloudy
3:55 PM 52.2 °F - 20.7 °F 29% 30.24 in 10.0 mi SW 6.9 mph - N/A   Partly Cloudy
4:55 PM 52.2 °F - 22.5 °F 31% 30.22 in 10.0 mi SSW 8.1 mph - N/A   Partly Cloudy
5:55 PM 49.5 °F - 24.3 °F 37% 30.22 in 10.0 mi South 3.5 mph - N/A   Partly Cloudy
6:55 PM 45.9 °F 43.6 °F 25.9 °F 46% 30.22 in 10.0 mi South 4.6 mph - N/A   Partly Cloudy
7:55 PM 44.8 °F 42.4 °F 26.4 °F 49% 30.20 in 10.0 mi South 4.6 mph - N/A   Clear
8:55 PM 42.4 °F 39.6 °F 26.6 °F 54% 30.19 in 10.0 mi South 4.6 mph - N/A   Clear
9:55 PM 42.3 °F 40.5 °F 26.8 °F 54% 30.19 in 10.0 mi SSW 3.5 mph - N/A   Clear
10:55 PM 40.3 °F 38.2 °F 27.1 °F 59% 30.17 in 10.0 mi South 3.5 mph - N/A   Clear
11:55 PM 40.6 °F - 28.2 °F 61% 30.15 in 10.0 mi Calm Calm - N/A   Clear